Вернуться в каталог

STARLINK-6280

АктивенСвязьVLEO
NORAD 56531·PAYLOAD·🇺🇸 United States

Запущен May 14, 2023 с Cape Canaveral Space Force Station

Loading…

Ближайшие Пролёты (ближайшие 24 часа)

TLE

СвежийSource: CelesTrak SupGP

Эпоха: Sep 14, 2026, 21:15 UTC

1 56531C 23065AE  26257.88590278  .00007875  00000+0  28526-3 0  2574
2 56531  43.0027 209.8646 0001369 263.9196 255.6982 15.27572338    19

Отслеживайте STARLINK-6280 в реальном времени с AllMySat

Download on the App Store